| time (UTC) | temp C | wind direction | speed KPH | gust KPH | rain 1hr cm | rain 24hr cm | rain mn cm | humidity % | barometer mb |
| 20260905214525 | 33 | 167 | 11.3 | 25.7 | 0.00 | 0.05 | 0.05 | 61 | 1005.6 |
| 20260905213100 | 33 | 180 | 11.3 | 33.8 | 0.00 | 0.05 | 0.05 | 60 | 1005.5 |
| 20260905211552 | 34 | 182 | 14.5 | 35.4 | 0.00 | 0.05 | 0.05 | 58 | 1005.6 |
| 20260905210105 | 34 | 225 | 19.3 | 33.8 | 0.00 | 0.08 | 0.05 | 56 | 1005.8 |
| 20260905204548 | 34 | 219 | 12.9 | 35.4 | 0.00 | 0.08 | 0.05 | 57 | 1005.9 |
| 20260905203045 | 34 | 207 | 20.9 | 33.8 | 0.00 | 0.08 | 0.05 | 54 | 1006.1 |
| 20260905201543 | 34 | 159 | 19.3 | 32.2 | 0.00 | 0.08 | 0.05 | 53 | 1006.5 |
| 20260905200055 | 34 | 198 | 16.1 | 30.6 | 0.00 | 0.10 | 0.05 | 57 | 1006.6 |
| 20260905194538 | 33 | 223 | 22.5 | 35.4 | 0.00 | 0.10 | 0.05 | 57 | 1006.9 |
| 20260905193035 | 33 | 182 | 14.5 | 33.8 | 0.00 | 0.10 | 0.05 | 59 | 1007.3 |
| 20260905191540 | 33 | 165 | 16.1 | 30.6 | 0.00 | 0.10 | 0.05 | 59 | 1007.5 |
| 20260905190031 | 33 | 184 | 17.7 | 37.0 | 0.00 | 0.13 | 0.05 | 59 | 1007.5 |
| 20260905184535 | 34 | 360 | 17.7 | 29.0 | 0.00 | 0.13 | 0.05 | 58 | 1007.7 |
| 20260905183029 | 34 | 171 | 12.9 | 32.2 | 0.00 | 0.13 | 0.05 | 57 | 1007.7 |
| 20260905181527 | 34 | 171 | 9.7 | 30.6 | 0.00 | 0.13 | 0.05 | 56 | 1008.0 |
| 20260905180024 | 34 | 225 | 12.9 | 25.7 | 0.00 | 0.13 | 0.05 | 55 | 1008.4 |
| 20260905174523 | 34 | 175 | 16.1 | 24.1 | 0.00 | 0.13 | 0.05 | 55 | 1008.4 |
| 20260905173023 | 34 | 167 | 14.5 | 25.7 | 0.00 | 0.13 | 0.05 | 55 | 1008.6 |
| 20260905171536 | 34 | 153 | 12.9 | 24.1 | 0.00 | 0.13 | 0.05 | 55 | 1008.7 |
| 20260905170020 | 34 | 167 | 4.8 | 16.1 | 0.00 | 0.15 | 0.05 | 55 | 1008.9 |
| 20260905164517 | 34 | 159 | 1.6 | 20.9 | 0.00 | 0.15 | 0.05 | 55 | 1009.0 |
| 20260905163018 | 34 | 205 | 3.2 | 17.7 | 0.00 | 0.15 | 0.05 | 56 | 1009.0 |
| 20260905161514 | 33 | 192 | 3.2 | 12.9 | 0.00 | 0.15 | 0.05 | 57 | 1009.2 |
| 20260905160006 | 33 | 173 | 9.7 | 14.5 | 0.00 | 0.15 | 0.05 | 60 | 1009.5 |
| 20260905154505 | 32 | 154 | 11.3 | 14.5 | 0.00 | 0.15 | 0.05 | 59 | 1009.6 |
| 20260905153004 | 32 | 143 | 8.0 | 17.7 | 0.00 | 0.15 | 0.05 | 60 | 1009.7 |
| 20260905151559 | 32 | 108 | 4.8 | 11.3 | 0.00 | 0.15 | 0.05 | 60 | 1009.6 |
| 20260905150052 | 31 | 189 | 8.0 | 12.9 | 0.00 | 0.18 | 0.05 | 58 | 1009.4 |
| 20260905144553 | 31 | 140 | 8.0 | 11.3 | 0.00 | 0.18 | 0.05 | 63 | 1009.3 |
| 20260905143046 | 30 | 186 | 0.0 | 8.0 | 0.00 | 0.18 | 0.05 | 64 | 1009.1 |
| 20260905141542 | 29 | 288 | 0.0 | 1.6 | 0.00 | 0.18 | 0.05 | 68 | 1008.7 |
| 20260905140039 | 28 | 287 | 0.0 | 6.4 | 0.00 | 0.20 | 0.05 | 70 | 1008.5 |
| 20260905134538 | 27 | 306 | 0.0 | 6.4 | 0.00 | 0.20 | 0.05 | 74 | 1008.5 |
| 20260905133035 | 26 | 306 | 0.0 | 0.0 | 0.00 | 0.20 | 0.05 | 77 | 1008.2 |
| 20260905131534 | 25 | 292 | 0.0 | 9.7 | 0.00 | 0.20 | 0.05 | 78 | 1008.2 |
| 20260905130003 | 25 | 294 | 0.0 | 0.0 | 0.00 | 0.20 | 0.05 | 80 | 1008.1 |
| 20260905124503 | -17 | 0.0 | 0.0 | 0.00 | 0.20 | 0.05 | 1008.2 | ||
| 20260905123056 | -17 | 0.0 | 0.0 | 0.00 | 0.20 | 0.05 | 1008.1 | ||
| 20260905121553 | -17 | 0.0 | 0.0 | 0.00 | 0.20 | 0.05 | 1008.0 | ||
| 20260905120148 | 24 | 301 | 0.0 | 8.0 | 0.00 | 0.23 | 0.05 | 81 | 1008.1 |
| 20260905114605 | 24 | 307 | 0.0 | 0.0 | 0.00 | 0.23 | 0.05 | 80 | 1008.0 |
| 20260905113045 | 24 | 324 | 0.0 | 0.0 | 0.00 | 0.23 | 0.05 | 80 | 1007.9 |
| 20260905111546 | 24 | 317 | 0.0 | 11.3 | 0.00 | 0.23 | 0.05 | 81 | 1007.6 |
| 20260905110044 | 24 | 272 | 0.0 | 0.0 | 0.00 | 0.23 | 0.05 | 82 | 1007.5 |
| 20260905104547 | 24 | 272 | 0.0 | 0.0 | 0.00 | 0.23 | 0.05 | 82 | 1007.4 |
| 20260905103045 | 24 | 273 | 0.0 | 0.0 | 0.00 | 0.23 | 0.05 | 82 | 1007.4 |
| 20260905101541 | 24 | 272 | 0.0 | 0.0 | 0.00 | 0.23 | 0.05 | 82 | 1007.3 |
| 20260905100038 | 25 | 272 | 0.0 | 0.0 | 0.00 | 0.25 | 0.05 | 82 | 1007.2 |
| 20260905094557 | 25 | 272 | 0.0 | 0.0 | 0.03 | 0.25 | 0.05 | 82 | 1007.1 |
| 20260905093042 | 25 | 272 | 0.0 | 0.0 | 0.03 | 0.25 | 0.05 | 82 | 1007.2 |
| 20260905091532 | 25 | 268 | 0.0 | 1.6 | 0.03 | 0.25 | 0.05 | 81 | 1007.3 |
| 20260905090030 | 25 | 268 | 0.0 | 0.0 | 0.03 | 0.30 | 0.05 | 80 | 1007.6 |
| 20260905084535 | 25 | 273 | 0.0 | 0.0 | 0.00 | 0.28 | 0.03 | 80 | 1007.8 |
| 20260905083026 | 25 | 304 | 0.0 | 8.0 | 0.00 | 0.28 | 0.03 | 80 | 1008.0 |
| 20260905081524 | 25 | 312 | 0.0 | 0.0 | 0.00 | 0.28 | 0.03 | 81 | 1008.0 |
| 20260905080034 | 25 | 311 | 0.0 | 0.0 | 0.00 | 0.30 | 0.03 | 81 | 1008.3 |
| 20260905074520 | 25 | 318 | 0.0 | 0.0 | 0.00 | 0.30 | 0.03 | 82 | 1008.6 |
| 20260905073034 | 25 | 318 | 0.0 | 0.0 | 0.00 | 0.30 | 0.03 | 81 | 1009.0 |
| 20260905071516 | 25 | 319 | 0.0 | 0.0 | 0.00 | 0.30 | 0.03 | 80 | 1009.3 |
| 20260905070013 | 25 | 320 | 0.0 | 0.0 | 0.00 | 0.30 | 0.03 | 79 | 1009.4 |
| 20260905064514 | 25 | 319 | 0.0 | 0.0 | 0.00 | 0.30 | 0.03 | 78 | 1009.5 |
| 20260905063012 | 26 | 319 | 0.0 | 0.0 | 0.00 | 0.30 | 0.03 | 77 | 1009.5 |
| 20260905061508 | 25 | 320 | 0.0 | 0.0 | 0.00 | 0.30 | 0.03 | 77 | 1009.7 |
| 20260905060008 | 25 | 309 | 0.0 | 0.0 | 0.00 | 0.30 | 0.03 | 78 | 1009.9 |
| 20260905054506 | 25 | 288 | 0.0 | 0.0 | 0.00 | 0.30 | 0.03 | 77 | 1010.0 |
| 20260905053006 | 26 | 281 | 0.0 | 0.0 | 0.00 | 0.30 | 0.03 | 77 | 1010.2 |
| 20260905051503 | 26 | 308 | 0.0 | 0.0 | 0.00 | 0.30 | 0.03 | 76 | 1010.3 |
| 20260905050005 | 26 | 323 | 0.0 | 1.6 | 0.00 | 0.30 | 0.03 | 76 | 1010.4 |
| 20260905044505 | 26 | 283 | 0.0 | 0.0 | 0.00 | 0.30 | 0.03 | 77 | 1010.6 |
| 20260905043002 | 26 | 290 | 0.0 | 0.0 | 0.03 | 0.30 | 0.03 | 76 | 1010.8 |
| 20260905041556 | 26 | 308 | 0.0 | 0.0 | 0.03 | 0.30 | 0.03 | 77 | 1011.0 |
| 20260905040116 | 26 | 316 | 0.0 | 0.0 | 0.03 | 0.33 | 0.03 | 77 | 1011.0 |
| 20260905034558 | 26 | 306 | 0.0 | 0.0 | 0.03 | 0.33 | 0.03 | 77 | 1011.1 |
| 20260905033054 | 26 | 300 | 0.0 | 0.0 | 0.00 | 0.30 | 0.00 | 76 | 1010.8 |
| 20260905031545 | 26 | 300 | 0.0 | 0.0 | 0.00 | 0.30 | 0.00 | 75 | 1010.5 |
| 20260905030044 | 26 | 300 | 0.0 | 0.0 | 0.00 | 0.36 | 0.00 | 75 | 1010.3 |
| 20260905024539 | 26 | 300 | 0.0 | 0.0 | 0.00 | 0.36 | 0.00 | 74 | 1010.0 |
| 20260905023041 | 27 | 298 | 0.0 | 0.0 | 0.00 | 0.36 | 0.00 | 74 | 1009.9 |
| 20260905021506 | 27 | 321 | 0.0 | 0.0 | 0.00 | 0.36 | 0.00 | 73 | 1009.8 |
| 20260905014554 | 27 | 15 | 0.0 | 0.0 | 0.00 | 0.43 | 0.00 | 71 | 1009.3 |
| 20260905013058 | 27 | 305 | 0.0 | 1.6 | 0.00 | 0.43 | 0.00 | 71 | 1009.0 |
| 20260905011546 | 27 | 300 | 0.0 | 0.0 | 0.00 | 0.43 | 0.00 | 70 | 1008.6 |
| 20260905010049 | 28 | 270 | 0.0 | 0.0 | 0.00 | 0.51 | 0.43 | 69 | 1008.2 |
| 20260905004536 | 28 | 311 | 0.0 | 16.1 | 0.00 | 0.51 | 0.43 | 67 | 1008.0 |
| 20260905003035 | 28 | 312 | 12.9 | 19.3 | 0.00 | 0.51 | 0.43 | 65 | 1007.9 |
| 20260905001536 | 29 | 321 | 12.9 | 16.1 | 0.00 | 0.51 | 0.43 | 64 | 1008.0 |
| 20260905000034 | 29 | 330 | 11.3 | 17.7 | 0.00 | 0.56 | 0.43 | 63 | 1008.1 |
| 20260904234520 | 30 | 334 | 12.9 | 19.3 | 0.00 | 0.56 | 0.43 | 62 | 1007.9 |
| 20260904233016 | 29 | 313 | 11.3 | 17.7 | 0.00 | 0.56 | 0.43 | 64 | 1007.9 |
| 20260904231513 | 29 | 302 | 12.9 | 22.5 | 0.03 | 0.56 | 0.43 | 61 | 1008.0 |
| 20260904230011 | 30 | 324 | 17.7 | 37.0 | 0.03 | 0.66 | 0.43 | 60 | 1008.0 |
| 20260904224559 | 32 | 315 | 24.1 | 32.2 | 0.03 | 0.66 | 0.43 | 56 | 1007.9 |
| 20260904223058 | 32 | 172 | 0.0 | 12.9 | 0.03 | 0.66 | 0.43 | 63 | 1007.8 |
| 20260904221551 | 33 | 145 | 9.7 | 20.9 | 0.00 | 0.64 | 0.41 | 62 | 1007.8 |
| 20260904220107 | 33 | 166 | 11.3 | 24.1 | 0.00 | 0.64 | 0.41 | 59 | 1007.2 |